[[{"header":{"parameterUnit":"m.s-1","parameterCategory":1,"la1":30.2991,"la2":30.254,"lo1":-89.0895,"lo2":-89.0444,"dy":0.0017,"dx":0.0017,"nx":28,"ny":28,"refTime":"2023-10-14T09:00:00:Z","depth":0,"parameterNumber":2,"parameterNumberName":"U-component_of_WINDS"},"data":[0,0,0,0,0,0,0,0,0,0,0,0,0,0,0,0,0,0,0,0,0,0,0,0,0,0,0,0,0,0,0,0,0,0,0,0,0,0,0,0,0,0,0,0,0,0,0,0,0,0,0,0,0,0,0,0,0,0,2.0985,2.0985,0,2.0965,2.0964,2.0964,2.0817,2.0813,2.081,2.0806,2.0792,2.0795,2.0798,0,0,0,0,0,0,0,0,0,0,0,0,0,2.0903,2.0906,2.0986,2.0985,2.0985,2.0965,2.0964,2.0964,2.0818,2.0813,2.0809,2.0805,2.0791,2.0794,2.0798,0,0,0,0,0,0,0,0,0,0,0,0,0,2.0917,2.0906,2.0986,2.0909,2.0902,2.0965,2.0964,2.0964,2.0819,2.0813,2.0808,2.0803,2.079,2.0794,2.0798,2.0935,0,0,2.0812,2.0814,0,0,0,0,0,0,0,0,2.0916,2.092,2.0921,2.0915,2.0907,2.0888,2.093,2.0955,2.082,2.0851,2.0806,2.08,2.0829,2.083,2.0838,2.0934,2.0933,2.0813,2.0815,2.0817,2.0818,0,0,0,0,0,0,0,2.0915,2.092,2.0977,2.0921,2.0912,2.0878,2.0874,2.0934,2.0871,2.0847,2.0837,2.0836,2.0824,2.0834,2.0836,2.0933,2.0812,2.0816,2.0819,2.0821,2.1139,2.1145,0,0,0,0,0,0,2.0924,2.092,2.0978,2.0977,2.0898,2.0884,2.0879,2.0899,2.0869,2.0859,2.0841,2.0829,2.0829,2.0831,2.0835,2.0992,2.0817,2.0821,2.0824,2.1133,2.114,2.1147,0,0,0,0,0,0,2.0923,2.0931,2.0979,2.0945,2.0949,2.0891,2.0915,2.0902,2.0912,2.0864,2.0853,2.0862,2.0825,2.0829,2.091,2.099,2.0823,2.0827,2.1127,2.1136,2.1144,2.1308,0,0,0,0,0,0,2.0921,2.0931,2.0982,2.0948,2.0951,2.1054,2.092,2.0905,2.0919,2.0904,2.0881,2.0872,2.0821,2.0904,2.0915,2.0993,2.0831,2.1119,2.1131,2.1141,2.1295,2.1321,2.1343,0,0,0,0,0,2.0919,2.1031,2.0985,2.0993,2.1013,2.1058,2.1061,2.0997,2.0926,2.0977,2.0946,2.0873,2.0979,2.0914,2.0925,2.1005,2.1114,2.1127,2.114,2.1284,2.1316,2.1343,0,0,0,0,0,0,2.1079,2.1025,2.0974,2.1077,2.1073,2.1033,2.1095,2.1033,2.1051,2.1036,2.0958,2.0954,2.1048,2.1034,2.0963,2.1135,2.1034,2.105,2.114,2.117,2.1193,2.1195,2.0835,0,0,0,0,0,2.1125,2.1165,2.1116,2.1213,2.1213,2.1155,2.1173,2.1123,2.1117,2.1115,2.109,2.1089,2.1121,2.1145,2.1172,2.1292,2.1285,2.1352,2.1377,2.1396,2.1412,2.1473,2.1503,2.1189,2.1189,2.1189,0,0,2.1223,2.1199,2.1229,2.1244,2.1235,2.1279,2.1155,2.1207,2.124,2.1124,2.1198,2.118,2.1173,2.1274,2.1318,2.1266,2.1496,2.1413,2.1429,2.1433,2.149,2.1519,2.1546,2.1198,2.1196,2.1195,0,0,2.1424,2.141,2.1487,2.148,2.1467,2.1427,2.1446,2.1415,2.1398,2.147,2.1384,2.1422,2.148,2.1478,2.1485,2.1683,2.1617,2.1694,2.1821,2.1882,2.1907,2.1928,2.1999,2.2025,2.1709,2.171,2.171,0,2.1549,2.161,2.1536,2.1593,2.1602,2.1496,2.1575,2.1572,2.1571,2.158,2.1521,2.159,2.1579,2.1677,2.1725,2.1734,2.1754,2.1697,2.1909,2.1929,2.1948,2.2015,2.2042,2.1719,2.1718,2.1717,2.1716,0,2.1763,2.1807,2.1872,2.1869,2.1885,2.1954,2.1891,2.1917,2.1866,2.1833,2.1908,2.1889,2.1911,2.193,2.1883,2.2022,2.1991,2.1922,2.1819,2.1989,2.205,2.2075,2.1733,2.1729,2.1726,2.1724,0,0,2.2067,2.2019,2.2044,2.2041,2.2018,2.2051,2.2114,2.2132,2.2156,2.2158,2.221,2.226,2.2195,2.2203,2.2153,2.2207,2.2365,2.2131,2.213,2.2176,2.2518,2.257,2.2601,2.232,2.2325,2.2328,2.2518,0,2.2259,2.2362,2.2297,2.2411,2.2451,2.2349,2.2404,2.2397,2.2367,2.2398,2.2366,2.2402,2.2314,2.2318,2.2366,2.2336,2.2433,2.2321,2.2369,2.2372,2.2375,2.2633,2.2689,2.2869,2.2542,2.2546,2.2549,0,2.2499,2.2507,2.2625,2.2591,2.2606,2.2656,2.2667,2.2697,2.2686,2.2661,2.2668,2.2605,2.2666,2.2564,2.2647,2.2572,2.2588,2.2576,2.2581,2.2584,2.2471,2.2643,2.2925,2.2952,2.2586,2.2583,2.258,0,2.2708,2.275,2.2824,2.2825,2.2788,2.2826,2.2813,2.2796,2.2811,2.2821,2.2829,2.2848,2.2858,2.2874,2.2817,2.2748,2.2908,2.2802,2.289,2.2892,2.2929,2.2928,2.3218,2.2939,2.2939,2.2938,2.2938,0,2.2931,2.3007,2.2918,2.2964,2.3046,2.297,2.3054,2.3031,2.3017,2.3058,2.2972,2.3013,2.2935,2.2969,2.2925,2.3001,2.3006,2.2988,2.2976,2.2996,2.2999,2.3006,2.2992,2.2945,2.2944,2.2942,2.2941,0,2.318,2.3123,2.3198,2.3155,2.3147,2.3209,2.3174,2.3216,2.3179,2.3232,2.324,2.3184,2.3218,2.3163,2.3192,2.3162,2.3267,2.3236,2.327,2.3261,2.3353,2.3345,2.3659,2.3696,2.3393,2.3396,2.3399,0,2.3326,2.3382,2.3344,2.3364,2.3355,2.3388,2.3401,2.3329,2.3346,2.3337,2.3381,2.3407,2.3425,2.3485,2.3448,2.347,2.3438,2.3546,2.3441,2.3459,2.344,2.3437,2.3442,2.3569,2.3572,2.3575,2.3578,0,2.3592,2.356,2.3581,2.3592,2.361,2.3616,2.3616,2.3638,2.3561,2.3585,2.3618,2.3631,2.3659,2.3687,2.3698,2.3686,2.3621,2.3611,2.3632,2.3654,2.3672,2.3663,2.333,2.3604,2.3602,2.36,2.3598,2.3597,2.3794,2.3838,2.3817,2.3844,2.3835,2.3836,2.3873,2.3839,2.3864,2.3879,2.3835,2.3878,2.3865,2.3873,2.3869,2.3902,2.3855,2.3887,2.3895,2.3904,2.3918,2.3666,2.3904,2.3904,2.3903,2.3902,2.3902,0,2.4055,2.4036,2.4061,2.4061,2.4082,2.4014,2.401,2.4032,2.407,2.4062,2.408,2.4118,2.4144,2.4108,2.4128,2.4161,2.4132,2.4169,2.4166,2.4165,2.3959,2.3938,2.4193,2.4193,2.4193,2.4193,2.4193,2.4193,2.4194,2.4264,2.423,2.4295,2.4275,2.4314,2.4318,2.4319,2.4312,2.4356,2.4376,2.4351,2.4332,2.435,2.4371,2.436,2.4372,2.442,2.4399,2.4208,2.4179,2.4152,2.4132,2.4423,2.4424,2.4601,2.4603,2.4604]},{"header":{"parameterUnit":"m.s-1","parameterCategory":1,"la1":30.2991,"la2":30.254,"lo1":-89.0895,"lo2":-89.0444,"dy":0.0017,"dx":0.0017,"nx":28,"ny":28,"refTime":"2023-10-14T09:00:00:Z","depth":0,"parameterNumber":3,"parameterNumberName":"V-component_of_WINDS"},"data":[0,0,0,0,0,0,0,0,0,0,0,0,0,0,0,0,0,0,0,0,0,0,0,0,0,0,0,0,0,0,0,0,0,0,0,0,0,0,0,0,0,0,0,0,0,0,0,0,0,0,0,0,0,0,0,0,0,0,0.4712,0.4713,0,0.4762,0.4763,0.4763,0.4768,0.4768,0.4767,0.4767,0.4818,0.4819,0.4821,0,0,0,0,0,0,0,0,0,0,0,0,0,0.4621,0.4622,0.4712,0.4713,0.4714,0.4762,0.4763,0.4763,0.4768,0.4768,0.4767,0.4767,0.4817,0.4819,0.4821,0,0,0,0,0,0,0,0,0,0,0,0,0,0.4664,0.4623,0.4712,0.4722,0.4723,0.4762,0.4763,0.4764,0.4769,0.4768,0.4767,0.4766,0.4816,0.4819,0.4822,0.4854,0,0,0.483,0.4831,0,0,0,0,0,0,0,0,0.4662,0.4668,0.472,0.4721,0.4723,0.4758,0.4749,0.4794,0.4769,0.4751,0.4767,0.4766,0.4798,0.4803,0.4814,0.4856,0.4858,0.483,0.4832,0.4833,0.4834,0,0,0,0,0,0,0,0.4659,0.4666,0.4732,0.4721,0.4723,0.4723,0.4729,0.4757,0.4779,0.4753,0.4753,0.4759,0.4799,0.4811,0.4815,0.4859,0.483,0.4833,0.4834,0.4835,0.4929,0.493,0,0,0,0,0,0,0.4654,0.4663,0.473,0.4734,0.469,0.4726,0.4732,0.4748,0.4778,0.4782,0.476,0.4759,0.4807,0.4812,0.4817,0.4856,0.4833,0.4836,0.4837,0.4928,0.4929,0.493,0,0,0,0,0,0,0.4652,0.466,0.4728,0.4699,0.4707,0.4728,0.4746,0.4749,0.4761,0.4783,0.4787,0.4768,0.4806,0.4813,0.4844,0.4857,0.4837,0.4839,0.4927,0.4929,0.493,0.4934,0,0,0,0,0,0,0.465,0.4659,0.4672,0.4699,0.4709,0.4756,0.4747,0.4751,0.4766,0.4765,0.4792,0.4796,0.4806,0.484,0.4847,0.4861,0.4841,0.4926,0.4928,0.4929,0.4933,0.4935,0.4937,0,0,0,0,0,0.4646,0.4672,0.4673,0.4681,0.4725,0.4756,0.4762,0.4773,0.4767,0.4779,0.4794,0.4795,0.4855,0.4843,0.4851,0.4866,0.4925,0.4927,0.4929,0.4932,0.4935,0.4937,0,0,0,0,0,0,0.4647,0.4676,0.4677,0.4712,0.4732,0.4757,0.4774,0.4776,0.4799,0.4797,0.481,0.4816,0.4847,0.486,0.4846,0.4898,0.4889,0.4893,0.4889,0.4892,0.4894,0.489,0.4844,0,0,0,0,0,0.4651,0.4674,0.4698,0.4726,0.4736,0.4753,0.4767,0.4774,0.4795,0.4803,0.482,0.484,0.4863,0.4878,0.4901,0.4934,0.494,0.4948,0.4951,0.4952,0.4955,0.4973,0.4977,0.4936,0.4936,0.4936,0,0,0.466,0.4678,0.4692,0.4727,0.4743,0.4766,0.476,0.4785,0.4802,0.4807,0.4838,0.485,0.4873,0.4906,0.4921,0.4917,0.4968,0.4955,0.4956,0.4958,0.4975,0.4979,0.4983,0.4938,0.4938,0.4937,0,0,0.4687,0.4704,0.4729,0.4745,0.4769,0.478,0.4786,0.4811,0.482,0.4851,0.4854,0.4874,0.4914,0.493,0.4944,0.4976,0.4977,0.4983,0.4995,0.5012,0.5015,0.5018,0.5029,0.5032,0.4985,0.4985,0.4985,0,0.4695,0.4731,0.4742,0.4766,0.4781,0.4786,0.4811,0.4826,0.4856,0.4866,0.4861,0.491,0.4926,0.4962,0.497,0.4981,0.4987,0.498,0.5014,0.5017,0.502,0.503,0.5034,0.4986,0.4986,0.4986,0.4986,0,0.4739,0.4763,0.478,0.4809,0.4826,0.485,0.4864,0.488,0.4885,0.4896,0.4926,0.4946,0.4972,0.4981,0.4986,0.5017,0.5013,0.5011,0.5003,0.5024,0.5033,0.5038,0.4987,0.4986,0.4986,0.4986,0,0,0.4769,0.4803,0.4809,0.4821,0.4848,0.4867,0.4891,0.4916,0.4929,0.4949,0.4969,0.5002,0.5,0.5015,0.5022,0.5037,0.506,0.5032,0.5033,0.5036,0.5094,0.5095,0.51,0.5061,0.5062,0.5062,0.5091,0,0.48,0.4844,0.4853,0.4891,0.4913,0.4917,0.4938,0.4956,0.4967,0.4987,0.4998,0.5021,0.5017,0.5026,0.5041,0.5054,0.5071,0.5052,0.5079,0.508,0.5073,0.5105,0.5107,0.5134,0.5095,0.5096,0.5097,0,0.4841,0.4862,0.4902,0.4924,0.4934,0.4952,0.4976,0.4995,0.5015,0.5021,0.5037,0.5042,0.5067,0.5057,0.5091,0.5077,0.5089,0.5097,0.5098,0.5101,0.509,0.5108,0.5143,0.5146,0.5103,0.5103,0.5102,0,0.4859,0.4897,0.4925,0.4936,0.4963,0.4976,0.4987,0.5007,0.5021,0.5041,0.505,0.5073,0.5085,0.5102,0.5113,0.5105,0.5145,0.5136,0.5151,0.515,0.5159,0.5159,0.5195,0.5167,0.5167,0.5167,0.5167,0,0.4892,0.4916,0.4933,0.495,0.4977,0.4988,0.5013,0.5025,0.5042,0.5061,0.5066,0.5084,0.5097,0.5116,0.5124,0.515,0.5156,0.5162,0.5163,0.5161,0.516,0.5169,0.5167,0.5168,0.5168,0.5168,0.5167,0,0.4916,0.4929,0.496,0.4982,0.4988,0.5007,0.5026,0.5042,0.5053,0.5077,0.5083,0.5099,0.5122,0.5134,0.5163,0.5168,0.5197,0.5198,0.5191,0.5191,0.5205,0.5203,0.5249,0.5255,0.5222,0.5223,0.5223,0,0.4936,0.4955,0.4979,0.4992,0.5004,0.5025,0.5039,0.505,0.5064,0.5088,0.5101,0.5124,0.5143,0.5179,0.5194,0.5215,0.5216,0.5231,0.522,0.5216,0.5216,0.5215,0.5216,0.5233,0.5233,0.5233,0.5233,0,0.497,0.4975,0.4996,0.5018,0.5035,0.5053,0.507,0.5081,0.5094,0.511,0.5133,0.5148,0.5177,0.5199,0.5222,0.5233,0.5235,0.5237,0.5241,0.5239,0.5233,0.5236,0.5195,0.5236,0.5235,0.5235,0.5235,0.5235,0.4993,0.5009,0.5028,0.505,0.5064,0.5081,0.5097,0.5109,0.5129,0.5153,0.5158,0.5182,0.5201,0.5231,0.5243,0.5261,0.5259,0.5265,0.5267,0.5268,0.5268,0.523,0.5266,0.5266,0.5266,0.5265,0.5265,0,0.5027,0.5039,0.5059,0.5084,0.5101,0.5101,0.512,0.5134,0.5156,0.5173,0.5191,0.5217,0.5239,0.5254,0.5275,0.5287,0.5289,0.5293,0.5292,0.5294,0.527,0.5264,0.5291,0.5291,0.5291,0.5291,0.5291,0.5291,0.5046,0.5073,0.508,0.5114,0.5126,0.515,0.5161,0.5175,0.5188,0.5217,0.5235,0.5245,0.5261,0.5283,0.5303,0.5306,0.5314,0.5318,0.5321,0.5299,0.5296,0.5293,0.5288,0.5319,0.5319,0.5344,0.5344,0.5344]}]]